SWA2893 KLAX-KSFO

Flight info

Callsign SWA2893
Flight time N/A
Altitude 36000
Route SUMMR2 STOKD SERFR SERFR4
Aircraft B38M/M-SADE2E3GHIJ4J7P2RWZ/LB1D1

Departure

Time 2026-05-08 00:33
Airport Los Angeles International Airport (KLAX)

Arrival

Time N/A
Airport San Francisco International Airport (KSFO)
Time Latitude Longitude Altitude Speed Heading
2026-05-08 00:13 33.94694 -118.40059 110 ft 0 kts 261°
2026-05-08 00:24 33.94695 -118.40057 110 ft 2 kts 262°
2026-05-08 00:24 33.94692 -118.40029 109 ft 4 kts 305°
2026-05-08 00:25 33.94672 -118.40012 108 ft 4 kts 349°
2026-05-08 00:25 33.94665 -118.40011 108 ft 1 kts 356°
2026-05-08 00:28 33.94666 -118.40011 108 ft 1 kts 356°
2026-05-08 00:28 33.94688 -118.40012 108 ft 7 kts
2026-05-08 00:29 33.94780 -118.40008 110 ft 19 kts
2026-05-08 00:29 33.94873 -118.40071 109 ft 12 kts 335°
2026-05-08 00:29 33.94917 -118.40054 112 ft 5 kts 61°
2026-05-08 00:29 33.94922 -118.40037 112 ft 0 kts 77°
2026-05-08 00:30 33.94926 -118.40006 112 ft 10 kts 82°
2026-05-08 00:31 33.94950 -118.39930 112 ft 0 kts 38°
2026-05-08 00:32 33.94968 -118.39918 114 ft 9 kts 22°
2026-05-08 00:32 33.95038 -118.39979 114 ft 21 kts 274°
2026-05-08 00:32 33.95032 -118.40057 115 ft 0 kts 262°
2026-05-08 00:32 33.95032 -118.40058 115 ft 1 kts 262°
2026-05-08 00:33 33.95025 -118.40127 118 ft 18 kts 263°
2026-05-08 00:33 33.94975 -118.40601 114 ft 97 kts 263°
2026-05-08 00:33 33.94862 -118.41696 145 ft 162 kts 263°
2026-05-08 00:33 33.94704 -118.43115 800 ft 175 kts 261°
2026-05-08 00:34 33.94509 -118.44637 1405 ft 194 kts 261°
2026-05-08 00:34 33.94333 -118.46276 1842 ft 217 kts 265°
2026-05-08 00:34 33.94274 -118.48174 2355 ft 233 kts 269°
2026-05-08 00:34 33.94222 -118.50075 3253 ft 232 kts 268°
2026-05-08 00:35 33.94095 -118.52031 3971 ft 237 kts 265°
2026-05-08 00:35 33.93950 -118.54022 4704 ft 244 kts 266°
2026-05-08 00:35 33.93796 -118.56089 4907 ft 255 kts 266°
2026-05-08 00:35 33.93636 -118.58222 4956 ft 260 kts 265°
2026-05-08 00:36 33.93472 -118.60400 4986 ft 261 kts 265°
2026-05-08 00:36 33.93306 -118.62594 5075 ft 264 kts 265°
2026-05-08 00:36 33.93141 -118.64748 5811 ft 263 kts 265°
2026-05-08 00:36 33.92967 -118.67002 6407 ft 270 kts 265°
2026-05-08 00:37 33.92791 -118.69264 7027 ft 273 kts 266°
2026-05-08 00:37 33.92613 -118.71551 7623 ft 277 kts 266°
2026-05-08 00:37 33.92432 -118.73875 8244 ft 280 kts 266°
2026-05-08 00:38 33.92061 -118.78624 9425 ft 289 kts 266°
2026-05-08 00:38 33.91870 -118.81050 9993 ft 293 kts 266°
2026-05-08 00:38 33.91709 -118.83533 10295 ft 305 kts 271°
2026-05-08 00:38 33.91798 -118.86158 10378 ft 322 kts 274°
2026-05-08 00:39 33.91895 -118.88899 10526 ft 333 kts 274°
2026-05-08 00:39 33.91979 -118.91688 10919 ft 334 kts 273°
2026-05-08 00:39 33.92053 -118.94493 11252 ft 337 kts 273°
2026-05-08 00:39 33.92121 -118.97318 11602 ft 339 kts 273°
2026-05-08 00:40 33.92221 -119.00167 11926 ft 341 kts 278°
2026-05-08 00:40 33.92955 -119.02859 12260 ft 340 kts 300°
2026-05-08 00:40 33.94178 -119.05309 12545 ft 343 kts 302°
2026-05-08 00:40 33.95422 -119.07773 12889 ft 345 kts 303°
2026-05-08 00:41 33.96684 -119.10247 13207 ft 348 kts 303°
2026-05-08 00:41 33.97958 -119.12731 13529 ft 350 kts 303°
2026-05-08 00:41 33.99228 -119.15200 13843 ft 352 kts 303°
2026-05-08 00:41 34.00546 -119.17693 14109 ft 353 kts 308°
2026-05-08 00:42 34.02328 -119.19697 14415 ft 351 kts 326°
2026-05-08 00:42 34.04314 -119.21432 14655 ft 354 kts 325°
2026-05-08 00:42 34.06311 -119.23176 14951 ft 355 kts 325°
2026-05-08 00:42 34.08323 -119.24919 15210 ft 356 kts 325°
2026-05-08 00:43 34.10342 -119.26662 15470 ft 357 kts 326°
2026-05-08 00:43 34.12368 -119.28408 15730 ft 358 kts 326°
2026-05-08 00:43 34.14401 -119.30158 15979 ft 359 kts 326°
2026-05-08 00:43 34.16432 -119.31908 16212 ft 360 kts 326°
2026-05-08 00:44 34.18447 -119.33644 16424 ft 361 kts 325°
2026-05-08 00:44 34.20496 -119.35412 16650 ft 362 kts 325°
2026-05-08 00:44 34.22546 -119.37181 16856 ft 363 kts 325°
2026-05-08 00:44 34.24603 -119.38957 17046 ft 363 kts 325°
2026-05-08 00:45 34.26659 -119.40734 17245 ft 364 kts 325°
2026-05-08 00:45 34.28722 -119.42518 17422 ft 365 kts 325°
2026-05-08 00:45 34.30794 -119.44310 17575 ft 366 kts 325°
2026-05-08 00:45 34.32868 -119.46106 17775 ft 366 kts 325°
2026-05-08 00:46 34.34943 -119.47902 17935 ft 367 kts 325°
2026-05-08 00:46 34.37018 -119.49701 18090 ft 368 kts 325°
2026-05-08 00:46 34.39106 -119.51511 18238 ft 369 kts 325°
2026-05-08 00:46 34.41174 -119.53364 18362 ft 370 kts 319°
2026-05-08 00:47 34.42994 -119.55562 18483 ft 371 kts 315°
2026-05-08 00:47 34.44808 -119.57791 18599 ft 371 kts 315°
2026-05-08 00:47 34.46625 -119.60023 18726 ft 372 kts 315°
2026-05-08 00:47 34.48447 -119.62263 18846 ft 373 kts 315°
2026-05-08 00:48 34.50260 -119.64494 18983 ft 373 kts 315°
2026-05-08 00:48 34.52085 -119.66741 19126 ft 373 kts 315°
2026-05-08 00:48 34.53884 -119.68958 19565 ft 364 kts 315°
2026-05-08 00:48 34.55671 -119.71161 19560 ft 370 kts 315°
2026-05-08 00:49 34.56875 -119.72646 19481 ft 376 kts 315°
2026-05-08 00:49 34.58711 -119.74912 19572 ft 377 kts 315°
2026-05-08 00:49 34.60553 -119.77187 19680 ft 377 kts 315°
2026-05-08 00:49 34.62389 -119.79456 19775 ft 378 kts 315°
2026-05-08 00:50 34.64836 -119.82482 19914 ft 378 kts 315°
2026-05-08 00:50 34.66080 -119.84022 19979 ft 379 kts 315°
2026-05-08 00:50 34.67929 -119.86311 20057 ft 379 kts 315°
2026-05-08 00:50 34.69775 -119.88600 20144 ft 379 kts 315°
2026-05-08 00:51 34.71625 -119.90893 20211 ft 380 kts 315°
2026-05-08 00:51 34.73473 -119.93186 20292 ft 380 kts 315°
2026-05-08 00:51 34.75330 -119.95494 20366 ft 381 kts 315°
2026-05-08 00:51 34.77184 -119.97796 20433 ft 382 kts 315°
2026-05-08 00:52 34.79039 -120.00103 20513 ft 382 kts 315°
2026-05-08 00:52 34.80877 -120.02390 20581 ft 382 kts 315°
2026-05-08 00:52 34.82733 -120.04701 20636 ft 382 kts 315°
2026-05-08 00:52 34.84596 -120.07022 20703 ft 383 kts 315°
2026-05-08 00:53 34.86455 -120.09341 20756 ft 383 kts 315°
2026-05-08 00:53 34.88317 -120.11664 20817 ft 383 kts 315°
2026-05-08 00:53 34.90184 -120.13995 20863 ft 384 kts 315°
2026-05-08 00:53 34.92048 -120.16323 20933 ft 384 kts 315°
2026-05-08 00:54 34.93910 -120.18652 20986 ft 384 kts 315°
2026-05-08 00:54 34.95782 -120.20995 21043 ft 384 kts 315°
2026-05-08 00:54 34.97647 -120.23329 21087 ft 385 kts 315°
2026-05-08 00:54 34.99524 -120.25680 21127 ft 385 kts 315°
2026-05-08 00:55 35.01389 -120.28018 21182 ft 385 kts 315°
2026-05-08 00:55 35.03235 -120.30336 21218 ft 386 kts 315°
2026-05-08 00:55 35.05137 -120.32721 21268 ft 386 kts 315°
2026-05-08 00:55 35.06979 -120.35035 21313 ft 386 kts 315°
2026-05-08 00:56 35.08874 -120.37354 21345 ft 386 kts 319°
2026-05-08 00:56 35.10869 -120.39552 21377 ft 386 kts 318°
2026-05-08 00:56 35.12857 -120.41762 21419 ft 387 kts 318°
2026-05-08 00:56 35.14842 -120.43984 21445 ft 387 kts 318°
2026-05-08 00:57 35.16827 -120.46211 21488 ft 387 kts 318°
2026-05-08 00:57 35.18808 -120.48438 21537 ft 387 kts 318°
2026-05-08 00:57 35.20793 -120.50669 21574 ft 387 kts 318°
2026-05-08 00:57 35.22780 -120.52906 21608 ft 388 kts 318°
2026-05-08 00:58 35.24764 -120.55141 21639 ft 388 kts 318°
2026-05-08 00:58 35.26753 -120.57383 21679 ft 388 kts 318°
2026-05-08 00:58 35.28740 -120.59624 21719 ft 388 kts 318°
2026-05-08 00:58 35.30724 -120.61863 21752 ft 389 kts 318°
2026-05-08 00:59 35.32709 -120.64106 21778 ft 389 kts 318°
2026-05-08 00:59 35.34697 -120.66353 21810 ft 389 kts 318°
2026-05-08 00:59 35.36688 -120.68605 21814 ft 389 kts 317°
2026-05-08 00:59 35.38676 -120.70855 21818 ft 390 kts 317°
2026-05-08 01:00 35.40672 -120.73116 21807 ft 390 kts 317°
2026-05-08 01:00 35.42671 -120.75382 21773 ft 392 kts 317°